Regional Weather Roundup
Issued by NWS

Home | Current Version | Previous Version | Graphics & Text | Print | Product List | Glossary On
Versions: 1 2 3 4 5 6 7 8 9 10 11 12 13 14 15 16 17 18 19 20 21 22 23 24 25 26 27 28 29 30 31 32 33 34 35 36 37 38 39 40 41 42 43 44 45 46 47 48 49 50
311
ASUS45 KBOU 160907
RWRCO

WEATHER ROUNDUP FOR COLORADO
NATIONAL WEATHER SERVICE DENVER/BOULDER CO
300 AM MDT WED AUG 16 2017

NOTE: "FAIR" INDICATES FEW OR NO CLOUDS BELOW 12000 FEET WITH NO
SIGNIFICANT WEATHER AND/OR OBSTRUCTIONS TO VISIBILITY.

COZ001>005-013-030-031-161000-
...NORTHWEST COLORADO...

CITY           SKY/WX    TMP DP  RH WIND       PRES   REMARKS
CRAIG          FAIR      47  43  86 NE5       30.16S
HAYDEN         FAIR      48  46  93 E6        30.19S
MEEKER         FAIR      49  46  90 E3        30.15F
RABBIT EARS PA CLOUDY    37  36  93 NW5       30.35S
STEAMBOAT SPGS FAIR      46  46  97 SE5       30.18S
WALDEN         FAIR      41  39  93 SE6       30.23F
$$

COZ006>008-011-161000-
...WEST CENTRAL VALLEYS...

CITY           SKY/WX    TMP DP  RH WIND       PRES   REMARKS
GRAND JUNCTION MOCLDY    62  45  53 SW5       30.03S
MONTROSE       MOCLDY    59  36  42 SE7       30.12R
EAGLE          LGT RAIN  55  46  71 E9        30.19R
RIFLE          MOCLDY    60  46  59 SE5       30.10S
DELTA          NOT AVBL
NUCLA          FAIR      59  32  36 SE9       30.15R
$$

COZ017>023-064>068-161000-
...SOUTHWEST COLORADO...

CITY           SKY/WX    TMP DP  RH WIND       PRES   REMARKS
DURANGO        FAIR      49  34  56 N3        30.16R
CORTEZ         FAIR      47  36  65 E5        30.11S
PAGOSA SPRINGS FAIR      49  31  49 CALM      30.22S
TELLURIDE      NOT AVBL
WOLF CREEK PAS FAIR      37  27  65 W5        30.49S
$$

COZ009-010-012-014-032>034-037-058>063-161000-
...CENTRAL COLORADO...

CITY           SKY/WX    TMP DP  RH WIND       PRES   REMARKS
ASPEN          CLOUDY    53  39  59 S6        30.21S
BUENA VISTA    CLOUDY    57  29  34 NW9       30.20S
COPPER MTN     LGT RAIN  37  34  87 NW8       30.44S
BERTHOUD PASS  FOG       32  28  86 NW23G30   30.41F VSB<1/4 WCI  19
COTTONWOOD PAS CLOUDY    54  25  32 W14G24    30.31S
GUNNISON       FAIR      50  36  58 NE5       30.22S
KREMMLING      FAIR      55  46  71 N3        30.22S
LEADVILLE      CLOUDY    45  32  60 W5        30.32S
MONARCH PASS   CLOUDY    39  27  60 W22       30.53S
SALIDA         CLOUDY    61  31  31 NW7       30.24S
SUNLIGHT       CLOUDY    43  32  65 W5        30.40F
WILKERSON PASS FAIR      43  28  56 W8G21     30.40S
$$

COZ069>075-161000-
...SAN LUIS VALLEY/SANGRE DE CRISTO MOUNTAINS...

CITY           SKY/WX    TMP DP  RH WIND       PRES   REMARKS
ALAMOSA        MOCLDY    50  36  58 CALM      30.18R
DEL NORTE      CLOUDY    53  32  45 W13       30.22S
LA VETA PASS   NOT AVBL
SAGUACHE       CLOUDY    55  32  41 NW8       30.21S
$$

COZ035-036-038>040-161000-
...NORTHERN COLORADO FRONT RANGE...

CITY           SKY/WX    TMP DP  RH WIND       PRES   REMARKS
DENVER INTL AP MOCLDY    58  52  80 SW3       30.05S
DMNS CITY PARK   N/A     58  54  88 W2G12     30.06R
AURORA         MOCLDY    56  53  89 S5        30.07S
FRONT RANGE AP FAIR      59  54  82 SW5       30.07R
ERIE MUNI ARPT FAIR      58  55  88 NW3       30.09R
BOULDER MUN AP MOCLDY    57  54  88 N5        30.06S
CENTENNIAL     FAIR      56  52  86 CALM      30.08R
BROOMFIELD     NOT AVBL
FORT COLLINS   CLOUDY    60  55  83 CALM      30.05S
LONGMONT       MOCLDY    60  55  83 W3        30.07R
$$

COZ041-046-047-076>085-087-088-161000-
...PIKES PEAK/PALMER DIVIDE AND SOUTHERN FOOTHILLS...

CITY           SKY/WX    TMP DP  RH WIND       PRES   REMARKS
COLO. SPRINGS  MOCLDY    58  48  69 NW7       30.08S
A. F. ACADEMY  FAIR      52  48  86 N9        30.09S
SCHRIEVER AFB  MOCLDY    56  47  71 NW15      30.07S
CHEYENNE MTN   MOCLDY    59  43  55 NW9       30.06R
ELLICOTT       FAIR     N/A N/A N/A N8        30.06S
FALCON         FAIR      55  46  70 NW14      30.12S
FORT CARSON    FAIR      57  49  75 NW8       30.05R
LIMON          FAIR      55  51  86 NW13      30.02R
MONUMENT HILL  FAIR      50  46  87 NW5       30.15S
CANON CITY     CLEAR     63  52  67 E3        30.03S
WALSENBURG     FAIR      55  50  82 SW7       30.09S
TRINIDAD       FAIR      60  48  64 CALM      30.09R
$$

COZ042>045-048>051-090-091-161000-
...NORTHEAST COLORADO...

CITY           SKY/WX    TMP DP  RH WIND       PRES   REMARKS
GREELEY ARPT   FAIR      58  56  93 CALM      30.05R
AKRON          CLOUDY    59  53  80 N12       30.01F
BURLINGTON     CLOUDY    61  58  90 N14       29.98R
WRAY           NOT AVBL
YUMA           DRIZZLE   59  55  88 N5        29.97F
STERLING       FAIR      59  55  88 NW5       30.00R
HOLYOKE        CLOUDY    61  59  94 W5        29.98R
FORT MORGAN    FAIR      58  54  86 NW10      30.02F
$$

COZ086-089-092>099-161000-
...SOUTHEAST COLORADO...

CITY           SKY/WX    TMP DP  RH WIND       PRES   REMARKS
PUEBLO         FAIR      66  49  54 VRB5      30.00R
LA JUNTA       FAIR      65  52  62 N6        29.97S
LAMAR          FAIR      66  53  63 N10       29.92R
SPRINGFIELD      N/A     62  56  80 N25G32    29.93F
$$




USA.gov is the U.S. government's official web portal to all federal, state and local government web resources and services.